Regional Weather Roundup
Issued by NWS

Home | Current Version | Previous Version | Graphics & Text | Print | Product List | Glossary On
Versions: 1 2 3 4 5 6 7 8 9 10 11 12 13 14 15 16 17 18 19 20 21 22 23 24 25 26 27 28 29 30 31 32 33 34 35 36 37 38 39 40 41 42 43 44 45 46 47 48 49 50
000
ASUS45 KABQ 191010
RWRNM
NEW MEXICO REGIONAL WEATHER ROUNDUP
NATIONAL WEATHER SERVICE ALBUQUERQUE NM
300 AM MST SUN NOV 19 2017

NOTE: "FAIR" MEANS FEW OR NO CLOUDS BELOW 12,000 FEET AGL WITH NO
       SIGNIFICANT WEATHER OR OBSTRUCTIONS TO VISION.

      THIS PRODUCT IS RELEASED AS TWO VERSIONS.  ONE VERSION NEAR
      THE TOP OF THE HOUR CONTAINING PRELIMINARY DATA FROM ALBUQUERQUE
      AND OTHER STATIONS.  A FINAL VERSION WITH ADDITIONAL DATA IS
      ISSUED ABOUT 10 MINUTES AFTER THE HOUR.

NMZ501-503-504-510>518-191100-
NORTHWEST PLATEAU/NORTHCENTRAL MOUNTAINS

CITY           SKY/WX    TMP DP  RH WIND       PRES   REMARKS
FARMINGTON     FAIR      16   7  67 E6        30.36S WCI   7
LOS ALAMOS     FAIR      30   9  41 CALM      30.33F
SANTA FE       FAIR      26  12  55 N15       30.31F WCI  14
TAOS           FAIR      15   5  64 VRB3      30.37F
ANGEL FIRE     FAIR      11   8  85 CALM      30.35F

$$
NMZ402-403-502-505>509-191100-
WESTCENTRAL MOUNTAINS/SOUTHWEST MOUNTAINS

CITY           SKY/WX    TMP DP  RH WIND       PRES   REMARKS
GALLUP         FAIR      13   5  70 CALM      30.35F
GRANTS         FAIR      15   1  53 NW5       30.38S WCI   8
SILVER CITY    FAIR      27  10  47 N8        30.30S WCI  19

$$
NMZ407-409-411-412-191100-
SOUTHERN DESERTS

CITY           SKY/WX    TMP DP  RH WIND       PRES   REMARKS
DEMING         FAIR      39  22  50 E6        30.30S WCI  35
LAS CRUCES     FAIR      35  10  34 NW6       30.30S WCI  30
HOLLOMAN AFB   FAIR      32  15  50 CALM      30.34S
ALAMOGORDO     FAIR      32  18  55 SE7       30.33R WCI  26
T OR C         FAIR      36   5  27 NW7       30.30S WCI  30

$$
NMZ519>523-191100-
CENTRAL VALLEYS/CENTRAL HIGHLANDS

CITY           SKY/WX    TMP DP  RH WIND       PRES   REMARKS
ALBUQUERQUE    FAIR      33   8  35 NW5       30.35F WCI  29
MORIARTY ARPT  FAIR      11   3  70 NW3       30.34F
CLINES CORNERS FAIR      23   6  48 NW16      30.30F WCI  10
BELEN          FAIR      25   1  34 N7        30.34F WCI  18
SOCORRO        FAIR      28   1  31 NW9       30.34F WCI  20

$$
NMZ524>526-539-540-191100-
SOUTHCENTRAL MOUNTAINS

CITY           SKY/WX    TMP DP  RH WIND       PRES   REMARKS
RUIDOSO        FAIR      30  16  55 W5        30.35S WCI  25

$$
NMZ527>531-191100-
NORTHEAST HIGHLANDS/NORTHEAST PLAINS

CITY           SKY/WX    TMP DP  RH WIND       PRES   REMARKS
LAS VEGAS      FAIR      25  12  58 CALM      30.28F
RATON          FAIR      17  13  84 NE3       30.26F
CLAYTON        FAIR      31  16  54 W13       30.24F WCI  21

$$
NMZ532>537-191100-
EASTCENTRAL PLAINS

CITY           SKY/WX    TMP DP  RH WIND       PRES   REMARKS
SANTA ROSA     FAIR      28  19  69 S7        30.30S WCI  21
TUCUMCARI      FAIR      32  13  45 W8        30.28S WCI  25
CANNON AFB     FAIR      30  12  47 W5        30.33R WCI  25
CLOVIS AIRPORT FAIR      28  14  55 W8        30.32S WCI  20

$$
NMZ028-029-538-191100-
SOUTHEAST PLAINS

CITY           SKY/WX    TMP DP  RH WIND       PRES   REMARKS
ROSWELL        FAIR      28  16  60 SW6       30.34S WCI  22
ARTESIA        FAIR      30  16  55 SW8       30.36R WCI  23
CARLSBAD       FAIR      33  20  58 S8        30.35R WCI  26
HOBBS          FAIR      28  18  64 CALM      30.35R


$$




USA.gov is the U.S. government's official web portal to all federal, state and local government web resources and services.